Regional Weather Roundup
Issued by NWS

Home | Current Version | Previous Version | Text Only | Print | Product List | Glossary On
Versions: 1 2 3 4 5 6 7 8 9 10 11 12 13 14 15 16 17 18 19 20 21 22 23 24 25 26 27 28 29 30 31 32 33 34 35 36 37 38 39 40 41 42 43 44 45 46 47 48 49 50
000
ASUS42 KFFC 210510
RWRGA
WEATHER ROUNDUP FOR GEORGIA
NATIONAL WEATHER SERVICE PEACHTREE CITY GA
100 AM EDT FRI JUL 21 2017

NOTE: "FAIR" INDICATES FEW OR NO CLOUDS BELOW 12,000 FEET WITH NO
SIGNIFICANT WEATHER AND/OR OBSTRUCTIONS TO VISIBILITY.

* = USE WITH CAUTION. THE STATIONS MARKED WITH AN ASTERISK MAY NOT
REPORT WEATHER SUCH AS PRECIPITATION, FOG, OR THUNDER AND ARE NOT
QUALITY CONTROLLED BY NWS.

THE REMARK "TC" DENOTES TEMPERATURE READING IN DEGREES CELSIUS.

GAZ001>058-210600-
NORTH GEORGIA

CITY           SKY/WX    TMP DP  RH WIND       PRES   REMARKS
ATLANTA        PTCLDY    80  74  81 NW8       30.06S
ATHENS         CLOUDY    75  72  90 CALM      30.04S
CHAMBLEE       CLEAR     78  72  81 CALM      30.06S
PEACHTREE CITY CLEAR     75  74  96 CALM      30.06S FOG
ROME           CLEAR     78  77  96 W3        30.05S
WEST ATLANTA   CLEAR     79  76  90 CALM      30.06S
GAINESVILLE    CLEAR     78  73  84 CALM      30.09S
CARTERSVILLE   CLEAR     75  75 100 CALM      30.07S


CITY           SKY/WX    TMP DP  RH WIND       PRES   REMARKS
MARIETTA       CLEAR     78  73  84 W6        30.07R
CANTON*        CLEAR     81  73  78 CALM      30.08S
$$

GAZ059>098-102>109-210600-
CENTRAL GEORGIA

CITY           SKY/WX    TMP DP  RH WIND       PRES   REMARKS
AUGUSTA-BUSH   CLEAR     76  73  91 S5        30.03S
AUGUSTA-DANIEL CLEAR     79  68  69 S3        30.04F
COLUMBUS       PTCLDY    82  74  76 N5        30.02F
MACON          CLEAR     79  71  76 S3        30.03S
ROBINS AFB     PTCLDY    81  72  74 SE5       30.03S


CITY           SKY/WX    TMP DP  RH WIND       PRES   REMARKS
LAGRANGE*      PTCLDY    76  75  99 CALM      30.05S FOG
SYLVANIA*      PTCLDY    73  73 100 CALM      30.06S
MILLEDGEVILLE* CLEAR     79  73  83 CALM      30.04S
$$

GAZ099>101-110>166-210600-
SOUTH GEORGIA

CITY           SKY/WX    TMP DP  RH WIND       PRES   REMARKS
SAVANNAH       NOT AVBL
VALDOSTA       CLEAR     74  71  91 CALM      30.04F
ALMA           CLEAR     73  70  90 CALM      30.06S
ST SIMONS      CLEAR     81  75  82 SW6       30.04S
FT STEWART     CLOUDY    73  70  92 CALM      30.03R
ALBANY         CLOUDY    81  74  79 S5        30.05S
HUNTER AFB     CLEAR     74  70  88 CALM      30.02S
MOODY AFB      CLEAR     74  70  86 CALM      30.03F
BRUNSWICK      CLEAR     72  72 100 CALM      30.05F


CITY           SKY/WX    TMP DP  RH WIND       PRES   REMARKS
BAINBRIDGE*    MOCLDY    81  79  94 CALM      30.03F
MOULTRIE*      CLOUDY    73  72  94 CALM      30.05F
VIDALIA*       PTCLDY    77  72  83 CALM      30.06R
WAYCROSS*      CLEAR     73  73 100 CALM      30.05F
DOUGLAS*       PTCLDY    73  70  88 CALM      30.07S
$$



USA.gov is the U.S. government's official web portal to all federal, state and local government web resources and services.